Regional Weather Roundup
Issued by NWS

Home | Current Version | Previous Version | Graphics & Text | Print | Product List | Glossary Off
Versions: 1 2 3 4 5 6 7 8 9 10 11 12 13 14 15 16 17 18 19 20 21 22 23 24 25 26 27 28 29 30 31 32 33 34 35 36 37 38 39 40 41 42 43 44 45 46 47 48 49 50

950
ASUS43 KMKX 240421
RWRWI

WISCONSIN REGIONAL WEATHER ROUNDUP
NATIONAL WEATHER SERVICE MILWAUKEE/SULLIVAN WI
1100 PM CDT FRI JUN 23 2017

NOTE: "FAIR" INDICATES FEW OR NO CLOUDS BELOW 12,000 FEET WITH NO
SIGNIFICANT WEATHER AND/OR OBSTRUCTIONS TO VISIBILITY.

WIZ001-002-006>008-014>016-023>028-240500-
NORTHWEST WISCONSIN

CITY           SKY/WX    TMP DP  RH WIND       PRES   REMARKS
SUPERIOR ARPT  NOT AVBL
ASHLAND        CLOUDY    60  51  72 W9        29.82R
HAYWARD        CLOUDY    58  52  80 VRB3      29.86R
SIREN          CLOUDY    59  51  76 CALM      29.90R
CUMBERLAND     CLOUDY    59  50  72 NW13      29.88S
RICE LAKE      CLOUDY    60  52  74 W9G16     29.89R
CHETEK         CLOUDY    61  53  75 NW8       29.87S
LADYSMITH      CLOUDY    60  54  79 W7        29.87R
EAU CLAIRE     CLOUDY    62  52  69 NW14      29.86S
MENOMONIE      CLOUDY    59  56  91 W9        29.90R
NEW RICHMOND   CLOUDY    58  53  83 W10       29.92R
OSCEOLA        CLOUDY    60  51  71 W9G17     29.94R
$$

WIZ003>005-009-010-017-018-240500-
NORTH CENTRAL WISCONSIN

CITY           SKY/WX    TMP DP  RH WIND       PRES   REMARKS
MANITOWISH WTR CLOUDY    58  52  81 W6        29.80S
ARBOR VITAE    PTCLDY    59  51  74 NW7       29.80R
WOODRUFF       PTCLDY    59  51  74 NW7       29.80R
RHINELANDER    PTCLDY    56  52  86 W9        29.80R
EAGLE RIVER    MOCLDY    52  51  97 CALM      29.78S
LAND O LAKES   PTCLDY    56  48  73 NW6       29.80S
PHILLIPS       CLOUDY    56  54  90 W5        29.82S
TOMAHAWK       NOT AVBL
MEDFORD        LGT RAIN  58  51  77 W7        29.84R
MERRILL        CLOUDY    58  54  85 W8        29.82R
$$

WIZ029-030-035-036-043>047-240500-
CENTRAL WISCONSIN

CITY           SKY/WX    TMP DP  RH WIND       PRES   REMARKS
WAUSAU         PTCLDY    59  53  80 W10       29.80R
MOSINEE        CLEAR     55  52  88 W8        29.83R
MARSHFIELD     CLOUDY    60  51  72 NW9       29.83R
STEVENS POINT  CLEAR     60  51  72 W6        29.83R
WAUPACA        PTCLDY    64  53  67 W6        29.81R
WAUTOMA        CLEAR     61  55  81 W8        29.82S
WISC RAPIDS    MOCLDY    60  52  74 W8        29.84R
CAMP DOUGLAS   CLEAR     60  52  76 NW8       29.84S
$$

WIZ011>013-019>022-031-037>040-048>050-240500-
NORTHEAST WISCONSIN

CITY           SKY/WX    TMP DP  RH WIND       PRES   REMARKS
ANTIGO         CLEAR     56  51  84 W7        29.80S
SHAWANO        PTCLDY    63  52  67 W7        29.77S
OCONTO         CLEAR     56  52  86 CALM      29.75R
STURGEON BAY     N/A     65  52  62 NW7         N/A
GREEN BAY      CLEAR     62  55  77 W7        29.77R
MANITOWOC      CLOUDY    65  53  65 W6        29.78R
APPLETON       PTCLDY    61  52  72 W6        29.78R
CLINTONVILLE   CLEAR     61  50  67 W6        29.79R
OSHKOSH        CLEAR     62  53  72 W6        29.80R
$$

WIZ032>034-041-042-053>061-240500-
SOUTHWEST WISCONSIN

CITY           SKY/WX    TMP DP  RH WIND       PRES   REMARKS
LA CROSSE      CLEAR     68  55  63 W12       29.87R
SPARTA         MOCLDY    63  53  70 W8        29.87S
VIROQUA        CLOUDY    62  55  77 W8        29.89R
BOSCOBEL       CLEAR     66  55  67 W7        29.88R
PRAIRIE DU CHI CLOUDY    64  53  68 W8        29.90R
PLATTEVILLE    CLEAR     62  58  87 W9        29.90R
$$

WIZ056-057-062-063-064-067-068-240500-
SOUTH CENTRAL WISCONSIN

CITY           SKY/WX    TMP DP  RH WIND       PRES   REMARKS
REEDSBURG      CLEAR     61  54  77 W7        29.85S
BARABOO/DELLS  CLEAR     60  53  77 W6        29.85S
LONE ROCK      CLEAR     62  55  77 W5        29.86R
MINERAL POINT  CLEAR     63  57  82 W6        29.89R
MADISON        PTCLDY    63  54  72 VRB5      29.84R
MIDDLETON      CLEAR     60  55  82 W7        29.86R
WATERTOWN      CLEAR     61  57  86 W3        29.83S
MONROE         CLEAR     63  54  72 W9        29.87R
JANESVILLE     CLEAR     63  54  72 W3        29.85S
$$

WIZ051-052-058>065-066-070>072-240500-
SOUTHEAST WISCONSIN

CITY           SKY/WX    TMP DP  RH WIND       PRES   REMARKS
MILWAUKEE      CLEAR     69  53  56 W10       29.81R
WAUKESHA       CLEAR     61  52  72 W7        29.84R
MILWAUKEE/TIMM CLEAR     63  50  63 W8        29.83R
RACINE         CLEAR     67  52  58 W6        29.83R
KENOSHA        CLEAR     62  54  74 W6        29.83R
FOND DU LAC    CLEAR     63  52  67 W6        29.81R
SHEBOYGAN      CLEAR     63  55  75 W9        29.79R
WEST BEND      PTCLDY    63  52  67 W7        29.82R
JUNEAU         CLEAR     61  54  78 W5        29.84S
$$

LSZ147-162-240500-
LAKE SUPERIOR

STATION/POSITION TIME  TEMP    WIND        PRES    WAVE
                       AIR SEA DIR/SP/G            HT/PER
                 (UTC) (F)     (DEG/KT/KT) (MB)    (FT/S)
W MID LAKE BUOY  0350   47 39  260/  8/  8 1007.5S   1
DEVILS ISLAND    0400   56     290/ 16/ 17 1008.7R
SAXON HARBOR     0340   63     290/  6/ 12 1008.8R
$$

LMZ867-665-643>646-240500-
LAKE MICHIGAN

STATION/POSITION TIME  TEMP    WIND        PRES    WAVE
                       AIR SEA DIR/SP/G            HT/PER
                 (UTC) (F)     (DEG/KT/KT) (MB)    (FT/S)
CHAMBERS ISLAND  0340   64     220/  1/  6 1006.4R
S GREEN BAY BUOY 0400   67     270/ 10/ 12 1007.2
N MID LAKE BUOY  0350   61 57  340/  2/  2 1006.8R   1/ 2
NORTHPORT PIER   0340   66     290/  6/  9 1006.4R
KEWAUNEE LAKESHO 0354   63     290/  2/  3 1007.3R
SHEBOYGAN LAKESH 0400   66     270/ 10/ 14 1008.0R
PORT WASHINGTON  0330   67     290/  5/ 10 1009.5R
ATWATER BUOY     0309   66 60  280/ 10/ 10 1009.1
MILWAUKEE LAKESH 0400   67     290/  8/ 11   N/A
S MID LAKE BUOY  0350   66 63  330/ 16/ 17 1008.4R   1/ 3
KENOSHA   LAKESH 0400   67     300/  7/ 11 1009.5
$$

TC  - TEMPERATURE IN CELSIUS
VSB - VISIBILITY IN STATUTE MILES
WCI - WIND CHILL INDEX
HX  - HEAT INDEX





USA.gov is the U.S. government's official web portal to all federal, state and local government web resources and services.